Portada
METAR-TAF:

METAR-TAF

Aeroports :

Merimbula, Austràlia

latitud: 36-54-31S, longitud: 149-54-05E, altitud: 2 m

Observació

L'informe es va fer fa 52 minuts, a les 11:00 UTC
Vent 2 kt del Sud-Oest
Temperatura 12°C
Humitat 62%
Pressió 1026 hPa
Visibilitat 10 km o més
Cel ennuvolat a una alçada de 4000 ft
Cel cobert a una alçada de 5400 ft

METAR: YMER 251100Z AUTO 23002KT 9999 // BKN040 OVC054 12/05 Q1026

Hora: 21:52 (11:52 UTC)


TAF: manca

Observacions i pronòstics meteorològics de més de 4000 aeroports (METAR i TAF).

Les estacions disponibles són els punts grocs i vermells al mapa.

Posi el ratolí al punt desitjat per veure el nom de l'estació.

Feu clic per veure les observacions i els pronòstics meteorològics.

Per canviar el mapa: feu clic els botons verds amb una creu de color negre per apropar; al botó verd amb un guió per allunyar la imatge; o en les fletxes verdes per a mapes adjacents.


METAR-TAF: